Location: Newark
(7.0858°N, 171.3717°E)
Time: 06:59:59
(UTC+00:00)

Courier 1B - Pass Details

Date: 01 December 2020
Orbit: 962 x 1209 km, 28.3° (Epoch: 20 January)

Event Time Altitude Azimuth Distance (km) Brightness Sun altitude
Rises 13:53:13 0° 315° (NW) 3,847 - -63.8°
Reaches altitude 10° 13:56:36 10° 330° (NNW) 2,938 - -63.1°
Maximum altitude 14:02:05 23° 20° (NNE) 2,216 - -62.0°
Drops below altitude 10° 14:07:46 10° 68° (ENE) 3,070 - -60.9°
Exits shadow 14:11:08 - 82° (E) 3,993 11.0 -60.2°
Sets 14:11:23 0° 83° (E) 4,064 11.1 -60.1°
